| time (UTC) | temp F | wind direction | speed MPH | gust MPH | rain 1hr in | rain 24hr in | rain mn in | humidity % | barometer mb |
| 20260905232111 | 0 | 336 | 0.0 | 0.0 | 0.00 | 0.00 | 0.00 | 1011.8 | |
| 20260905232026 | 63 | 0.0 | 0.0 | 0.00 | 0.47 | 0.00 | 77 | 1028.0 | |
| 20260905231703 | 76 | 192 | 1.0 | 2.0 | 0.01 | 0.16 | 0.09 | 91 | 1012.8 |
| 20260905231606 | 0 | 353 | 0.0 | 0.0 | 0.00 | 0.00 | 0.00 | 1011.6 | |
| 20260905231537 | 71 | 48 | 6.0 | 10.0 | 0.00 | 0.00 | 0.00 | 69 | 1023.1 |
| 20260905231203 | 77 | 226 | 0.0 | 2.0 | 0.01 | 0.16 | 0.09 | 90 | 1013.0 |
| 20260905231102 | 0 | 341 | 0.0 | 0.0 | 0.00 | 0.00 | 0.00 | 1011.7 | |
| 20260905231020 | 63 | 0.0 | 0.0 | 0.00 | 0.47 | 0.00 | 76 | 1027.9 | |
| 20260905230704 | 77 | 221 | 1.0 | 2.0 | 0.01 | 0.16 | 0.09 | 89 | 1012.8 |
| 20260905230602 | 0 | 351 | 0.0 | 0.0 | 0.00 | 0.00 | 0.00 | 1011.8 | |
| 20260905230203 | 77 | 211 | 0.0 | 2.0 | 0.01 | 0.16 | 0.09 | 88 | 1012.7 |
| 20260905230100 | 0 | 349 | 0.0 | 0.0 | 0.00 | 0.00 | 0.00 | 1011.7 | |
| 20260905230044 | 63 | 0.0 | 2.0 | 0.00 | 0.47 | 0.00 | 76 | 1027.8 | |
| 20260905230034 | 71 | 36 | 6.0 | 10.0 | 0.00 | 0.00 | 0.00 | 70 | 1023.0 |
| 20260905225704 | 78 | 236 | 0.0 | 3.0 | 0.01 | 0.16 | 0.09 | 87 | 1012.8 |
| 20260905225554 | 0 | 356 | 0.0 | 1.0 | 0.00 | 0.00 | 0.00 | 1011.6 | |
| 20260905225203 | 78 | 223 | 3.0 | 5.0 | 0.01 | 0.15 | 0.08 | 85 | 1012.8 |
| 20260905225049 | 0 | 16 | 0.0 | 0.0 | 0.00 | 0.00 | 0.00 | 1011.7 | |
| 20260905225032 | 64 | 0.0 | 2.0 | 0.00 | 0.47 | 0.00 | 75 | 1027.8 | |
| 20260905224605 | 72 | 47 | 5.0 | 10.0 | 0.00 | 0.00 | 0.00 | 72 | 1023.0 |
| 20260905224544 | 0 | 13 | 0.0 | 0.0 | 0.00 | 0.00 | 0.00 | 1011.7 | |
| 20260905224204 | 78 | 260 | 1.0 | 2.0 | 0.00 | 0.15 | 0.07 | 84 | 1012.8 |
| 20260905224043 | 0 | 350 | 0.0 | 0.0 | 0.00 | 0.00 | 0.00 | 1011.7 | |
| 20260905224026 | 64 | 0.0 | 0.0 | 0.00 | 0.47 | 0.00 | 75 | 1027.7 | |
| 20260905223704 | 78 | 283 | 1.0 | 3.0 | 0.00 | 0.15 | 0.07 | 84 | 1012.6 |
| 20260905223541 | 0 | 307 | 0.0 | 0.0 | 0.00 | 0.00 | 0.00 | 1011.9 | |
| 20260905223204 | 79 | 264 | 0.0 | 2.0 | 0.00 | 0.15 | 0.07 | 86 | 1012.6 |
| 20260905223036 | 0 | 349 | 0.0 | 0.0 | 0.00 | 0.00 | 0.00 | 1011.9 | |
| 20260905223028 | 72 | 40 | 6.0 | 9.0 | 0.00 | 0.00 | 0.00 | 72 | 1023.0 |
| 20260905223020 | 65 | 0.0 | 0.0 | 0.00 | 0.47 | 0.00 | 74 | 1027.5 | |
| 20260905222703 | 79 | 238 | 1.0 | 2.0 | 0.00 | 0.15 | 0.07 | 86 | 1012.2 |
| 20260905222531 | 0 | 15 | 0.0 | 0.0 | 0.00 | 0.00 | 0.00 | 1012.0 | |
| 20260905222203 | 79 | 140 | 1.0 | 2.0 | 0.00 | 0.15 | 0.07 | 85 | 1012.4 |
| 20260905222044 | 65 | 0.0 | 0.0 | 0.00 | 0.47 | 0.00 | 73 | 1027.6 | |
| 20260905222026 | 0 | 284 | 0.0 | 1.0 | 0.00 | 0.00 | 0.00 | 1012.1 | |
| 20260905221703 | 79 | 290 | 2.0 | 3.0 | 0.00 | 0.15 | 0.07 | 84 | 1012.4 |
| 20260905221528 | 72 | 46 | 5.0 | 10.0 | 0.00 | 0.00 | 0.00 | 71 | 1023.2 |
| 20260905221523 | 0 | 10 | 0.0 | 0.0 | 0.00 | 0.00 | 0.00 | 1012.1 | |
| 20260905221203 | 79 | 310 | 1.0 | 2.0 | 0.00 | 0.15 | 0.07 | 84 | 1012.2 |
| 20260905221053 | 66 | 0.0 | 0.0 | 0.00 | 0.47 | 0.00 | 73 | 1027.6 | |
| 20260905221018 | 0 | 344 | 0.0 | 0.0 | 0.00 | 0.00 | 0.00 | 1012.2 | |
| 20260905220703 | 79 | 306 | 1.0 | 3.0 | 0.00 | 0.15 | 0.07 | 84 | 1012.3 |
| 20260905220514 | 0 | 325 | 1.0 | 1.0 | 0.00 | 0.00 | 0.00 | 1012.1 | |
| 20260905220204 | 80 | 344 | 1.0 | 5.0 | 0.00 | 0.15 | 0.07 | 84 | 1012.4 |
| 20260905220026 | 66 | 0.0 | 2.0 | 0.00 | 0.47 | 0.00 | 71 | 1027.5 | |
| 20260905220023 | 73 | 53 | 8.0 | 14.0 | 0.00 | 0.00 | 0.00 | 72 | 1022.8 |
| 20260905220010 | 0 | 341 | 0.0 | 1.0 | 0.00 | 0.00 | 0.00 | 1012.2 | |
| 20260905215703 | 80 | 297 | 1.0 | 2.0 | 0.00 | 0.15 | 0.07 | 83 | 1012.3 |
| 20260905215504 | 0 | 323 | 1.0 | 1.0 | 0.00 | 0.00 | 0.00 | 1012.0 | |
| 20260905215204 | 80 | 319 | 0.0 | 2.0 | 0.00 | 0.15 | 0.07 | 83 | 1012.5 |
| 20260905215020 | 67 | 0 | 0.0 | 2.0 | 0.00 | 0.47 | 0.47 | 70 | 1027.4 |
| 20260905215000 | 0 | 282 | 1.0 | 2.0 | 0.00 | 0.00 | 0.00 | 1012.1 | |
| 20260905214704 | 80 | 294 | 1.0 | 3.0 | 0.00 | 0.15 | 0.07 | 83 | 1012.5 |
| 20260905214522 | 73 | 51 | 6.0 | 10.0 | 0.00 | 0.00 | 0.00 | 73 | 1022.8 |
| 20260905214455 | 0 | 258 | 1.0 | 2.0 | 0.00 | 0.00 | 0.00 | 1012.2 | |
| 20260905214203 | 80 | 277 | 1.0 | 2.0 | 0.00 | 0.15 | 0.07 | 82 | 1012.5 |
| 20260905214044 | 67 | 0.0 | 0.0 | 0.00 | 0.47 | 0.47 | 68 | 1027.1 | |
| 20260905213950 | 0 | 347 | 1.0 | 1.0 | 0.00 | 0.00 | 0.00 | 1012.0 | |
| 20260905213703 | 81 | 321 | 2.0 | 2.0 | 0.00 | 0.15 | 0.07 | 82 | 1012.4 |
| 20260905213446 | 0 | 338 | 2.0 | 2.0 | 0.00 | 0.00 | 0.00 | 1012.2 | |
| 20260905213204 | 81 | 299 | 1.0 | 2.0 | 0.00 | 0.15 | 0.07 | 81 | 1012.2 |
| 20260905213052 | 68 | 248 | 0.0 | 2.0 | 0.00 | 0.47 | 0.47 | 67 | 1027.0 |
| 20260905213022 | 72 | 30 | 6.0 | 10.0 | 0.00 | 0.00 | 0.00 | 74 | 1022.9 |
| 20260905212941 | 0 | 322 | 1.0 | 1.0 | 0.00 | 0.00 | 0.00 | 1012.3 | |
| 20260905212703 | 81 | 4 | 2.0 | 3.0 | 0.00 | 0.15 | 0.07 | 80 | 1012.2 |
| 20260905212436 | 0 | 354 | 1.0 | 1.0 | 0.00 | 0.00 | 0.00 | 1012.2 | |
| 20260905212203 | 82 | 47 | 3.0 | 7.0 | 0.00 | 0.15 | 0.07 | 80 | 1012.4 |
| 20260905212026 | 68 | 256 | 0.0 | 2.0 | 0.00 | 0.47 | 0.47 | 67 | 1026.8 |
| 20260905211935 | 0 | 223 | 3.0 | 3.0 | 0.00 | 0.00 | 0.00 | 1012.4 | |
| 20260905211703 | 82 | 257 | 2.0 | 5.0 | 0.00 | 0.15 | 0.07 | 80 | 1012.1 |
| 20260905211538 | 71 | 44 | 6.0 | 9.0 | 0.00 | 0.00 | 0.00 | 79 | 1022.9 |
| 20260905211430 | 0 | 253 | 1.0 | 1.0 | 0.00 | 0.00 | 0.00 | 1012.5 | |
| 20260905211204 | 82 | 356 | 2.0 | 5.0 | 0.00 | 0.15 | 0.07 | 79 | 1012.0 |
| 20260905211020 | 68 | 270 | 0.0 | 2.0 | 0.00 | 0.47 | 0.47 | 67 | 1026.7 |
| 20260905210921 | 0 | 174 | 2.0 | 2.0 | 0.00 | 0.00 | 0.00 | 1012.3 | |
| 20260905210703 | 82 | 225 | 1.0 | 3.0 | 0.00 | 0.15 | 0.07 | 81 | 1012.0 |
| 20260905210421 | 0 | 306 | 1.0 | 1.0 | 0.00 | 0.00 | 0.00 | 1012.4 | |
| 20260905210204 | 82 | 228 | 2.0 | 3.0 | 0.00 | 0.15 | 0.07 | 81 | 1012.1 |
| 20260905210104 | 68 | 243 | 0.0 | 2.0 | 0.00 | 0.47 | 0.47 | 66 | 1026.6 |
| 20260905210036 | 70 | 39 | 3.0 | 5.0 | 0.00 | 0.00 | 0.00 | 82 | 1023.0 |
| 20260905205920 | 0 | 289 | 3.0 | 3.0 | 0.00 | 0.00 | 0.00 | 1012.4 | |
| 20260905205415 | 0 | 120 | 2.0 | 2.0 | 0.00 | 0.00 | 0.00 | 1012.4 | |
| 20260905205203 | 82 | 259 | 2.0 | 5.0 | 0.00 | 0.15 | 0.07 | 80 | 1012.4 |
| 20260905205032 | 68 | 256 | 0.0 | 2.0 | 0.00 | 0.47 | 0.47 | 66 | 1026.5 |
| 20260905204914 | 0 | 301 | 1.0 | 1.0 | 0.00 | 0.00 | 0.00 | 1012.3 | |
| 20260905204522 | 70 | 32 | 2.0 | 6.0 | 0.00 | 0.00 | 0.00 | 82 | 1023.0 |
| 20260905204410 | 0 | 28 | 0.0 | 0.0 | 0.00 | 0.00 | 0.00 | 1012.1 | |
| 20260905204203 | 83 | 19 | 1.0 | 3.0 | 0.00 | 0.15 | 0.07 | 79 | 1012.1 |
| 20260905204026 | 69 | 237 | 0.0 | 4.0 | 0.00 | 0.47 | 0.47 | 66 | 1026.5 |
| 20260905203909 | 0 | 340 | 0.0 | 1.0 | 0.00 | 0.00 | 0.00 | 1012.3 | |
| 20260905203405 | 0 | 328 | 1.0 | 1.0 | 0.00 | 0.00 | 0.00 | 1012.3 | |
| 20260905203203 | 81 | 243 | 1.0 | 5.0 | 0.00 | 0.15 | 0.07 | 83 | 1012.3 |
| 20260905203021 | 70 | 23 | 4.0 | 6.0 | 0.00 | 0.00 | 0.00 | 82 | 1022.8 |
| 20260905202900 | 0 | 173 | 2.0 | 3.0 | 0.00 | 0.00 | 0.00 | 1012.0 | |
| 20260905202704 | 81 | 78 | 3.0 | 5.0 | 0.00 | 0.15 | 0.07 | 83 | 1012.0 |
| 20260905202355 | 0 | 158 | 0.0 | 1.0 | 0.00 | 0.00 | 0.00 | 1012.0 | |
| 20260905202044 | 69 | 248 | 0.0 | 2.0 | 0.00 | 0.47 | 0.47 | 65 | 1026.5 |
| 20260905201850 | 0 | 228 | 1.0 | 2.0 | 0.00 | 0.00 | 0.00 | 1012.3 | |
| 20260905201703 | 81 | 215 | 1.0 | 5.0 | 0.00 | 0.15 | 0.07 | 85 | 1012.3 |
| 20260905201522 | 70 | 360 | 3.0 | 8.0 | 0.00 | 0.00 | 0.00 | 82 | 1022.8 |
| 20260905201345 | 0 | 10 | 1.0 | 2.0 | 0.00 | 0.00 | 0.00 | 1012.3 | |
| 20260905201203 | 79 | 337 | 2.0 | 5.0 | 0.00 | 0.15 | 0.07 | 87 | 1012.6 |
| 20260905201052 | 69 | 255 | 0.0 | 2.0 | 0.00 | 0.47 | 0.47 | 64 | 1026.4 |
| 20260905200840 | 0 | 242 | 2.0 | 2.0 | 0.00 | 0.00 | 0.00 | 1012.4 | |
| 20260905200704 | 78 | 64 | 1.0 | 5.0 | 0.00 | 0.15 | 0.07 | 87 | 1012.2 |
| 20260905200336 | 0 | 167 | 4.0 | 5.0 | 0.00 | 0.00 | 0.00 | 1012.3 | |
| 20260905200203 | 78 | 100 | 4.0 | 7.0 | 0.00 | 0.15 | 0.07 | 86 | 1012.2 |
| 20260905200026 | 70 | 1 | 2.0 | 6.0 | 0.00 | 0.00 | 0.00 | 82 | 1022.7 |
| 20260905195833 | 0 | 162 | 1.0 | 1.0 | 0.00 | 0.00 | 0.00 | 1012.7 | |
| 20260905195704 | 79 | 99 | 2.0 | 5.0 | 0.00 | 0.15 | 0.07 | 86 | 1012.4 |
| 20260905195328 | 0 | 153 | 3.0 | 3.0 | 0.00 | 0.00 | 0.00 | 1012.9 | |
| 20260905195020 | 69 | 259 | 0.0 | 2.0 | 0.00 | 0.47 | 0.47 | 65 | 1026.2 |
| 20260905194824 | 0 | 191 | 3.0 | 3.0 | 0.00 | 0.00 | 0.00 | 1012.9 | |
| 20260905194520 | 70 | 355 | 4.0 | 8.0 | 0.00 | 0.00 | 0.00 | 83 | 1022.6 |
| 20260905194319 | 0 | 317 | 3.0 | 3.0 | 0.00 | 0.00 | 0.00 | 1012.9 | |
| 20260905194044 | 69 | 270 | 0.0 | 2.0 | 0.00 | 0.47 | 0.47 | 64 | 1026.2 |
| 20260905193818 | 0 | 311 | 3.0 | 5.0 | 0.00 | 0.00 | 0.00 | 1013.1 | |
| 20260905193313 | 0 | 319 | 1.0 | 1.0 | 0.00 | 0.00 | 0.00 | 1013.0 | |
| 20260905193052 | 69 | 0.0 | 0.0 | 0.00 | 0.47 | 0.47 | 64 | 1026.1 | |
| 20260905193019 | 70 | 27 | 3.0 | 6.0 | 0.00 | 0.00 | 0.00 | 83 | 1022.6 |
| 20260905192809 | 0 | 233 | 2.0 | 2.0 | 0.00 | 0.00 | 0.00 | 1013.2 | |
| 20260905192704 | 78 | 292 | 2.0 | 3.0 | 0.07 | 0.15 | 0.07 | 88 | 1013.1 |
| 20260905192306 | 0 | 340 | 0.0 | 1.0 | 0.00 | 0.00 | 0.00 | 1013.3 | |
| 20260905192204 | 77 | 349 | 2.0 | 5.0 | 0.07 | 0.15 | 0.07 | 87 | 1013.1 |
| 20260905192026 | 69 | 0.0 | 0.0 | 0.00 | 0.47 | 0.47 | 63 | 1026.1 | |
| 20260905191804 | 0 | 295 | 0.0 | 1.0 | 0.00 | 0.00 | 0.00 | 1013.4 | |
| 20260905191704 | 78 | 12 | 3.0 | 6.0 | 0.07 | 0.15 | 0.07 | 86 | 1013.2 |
| 20260905191519 | 71 | 11 | 2.0 | 8.0 | 0.00 | 0.00 | 0.00 | 83 | 1022.6 |
| 20260905191302 | 0 | 255 | 1.0 | 1.0 | 0.00 | 0.00 | 0.00 | 1013.4 | |
| 20260905191204 | 79 | 342 | 2.0 | 6.0 | 0.07 | 0.14 | 0.07 | 87 | 1013.5 |
| 20260905191020 | 69 | 0.0 | 0.0 | 0.00 | 0.47 | 0.47 | 62 | 1025.9 | |
| 20260905190801 | 0 | 354 | 0.0 | 0.0 | 0.00 | 0.00 | 0.00 | 1013.3 | |
| 20260905190704 | 79 | 301 | 2.0 | 5.0 | 0.07 | 0.14 | 0.07 | 87 | 1013.8 |
| 20260905190255 | 0 | 3 | 0.0 | 0.0 | 0.00 | 0.00 | 0.00 | 1013.2 | |
| 20260905190203 | 80 | 307 | 2.0 | 5.0 | 0.07 | 0.14 | 0.07 | 87 | 1013.6 |
| 20260905190044 | 70 | 0.0 | 2.0 | 0.00 | 0.47 | 0.47 | 61 | 1025.9 | |
| 20260905190018 | 71 | 11 | 3.0 | 10.0 | 0.00 | 0.00 | 0.00 | 82 | 1022.5 |
| 20260905185754 | 0 | 290 | 1.0 | 1.0 | 0.00 | 0.00 | 0.00 | 1013.2 | |
| 20260905185704 | 80 | 263 | 1.0 | 3.0 | 0.07 | 0.14 | 0.07 | 86 | 1013.5 |
| 20260905185249 | 0 | 331 | 1.0 | 1.0 | 0.00 | 0.00 | 0.00 | 1013.3 | |
| 20260905185203 | 82 | 214 | 1.0 | 2.0 | 0.06 | 0.14 | 0.07 | 83 | 1013.4 |
| 20260905185053 | 70 | 0.0 | 2.0 | 0.00 | 0.47 | 0.47 | 60 | 1025.7 | |
| 20260905184748 | 0 | 14 | 1.0 | 1.0 | 0.00 | 0.00 | 0.00 | 1013.6 | |
| 20260905184704 | 82 | 194 | 1.0 | 2.0 | 0.06 | 0.13 | 0.06 | 82 | 1013.6 |
| 20260905184526 | 72 | 6 | 3.0 | 10.0 | 0.00 | 0.00 | 0.00 | 81 | 1022.6 |
| 20260905184242 | 0 | 158 | 3.0 | 3.0 | 0.00 | 0.00 | 0.00 | 1013.6 | |
| 20260905184204 | 82 | 35 | 1.0 | 2.0 | 0.05 | 0.13 | 0.06 | 81 | 1013.5 |
| 20260905184026 | 71 | 248 | 0.0 | 2.0 | 0.00 | 0.47 | 0.47 | 59 | 1025.6 |
| 20260905183740 | 0 | 337 | 1.0 | 1.0 | 0.00 | 0.00 | 0.00 | 1013.7 | |
| 20260905183703 | 83 | 344 | 0.0 | 3.0 | 0.05 | 0.12 | 0.05 | 78 | 1013.5 |
| 20260905183236 | 0 | 358 | 1.0 | 1.0 | 0.00 | 0.00 | 0.00 | 1013.6 | |
| 20260905183203 | 87 | 41 | 3.0 | 7.0 | 0.02 | 0.10 | 0.03 | 70 | 1013.5 |
| 20260905183020 | 71 | 248 | 0.0 | 2.0 | 0.00 | 0.47 | 0.47 | 58 | 1025.5 |
| 20260905183017 | 72 | 334 | 4.0 | 9.0 | 0.00 | 0.00 | 0.00 | 80 | 1022.8 |
| 20260905182731 | 0 | 82 | 1.0 | 2.0 | 0.00 | 0.00 | 0.00 | 1013.6 | |
| 20260905182704 | 90 | 94 | 2.0 | 3.0 | 0.00 | 0.07 | 0.00 | 60 | 1013.3 |
| 20260905182230 | 0 | 322 | 1.0 | 2.0 | 0.00 | 0.00 | 0.00 | 1013.7 | |
| 20260905182204 | 89 | 249 | 2.0 | 5.0 | 0.00 | 0.07 | 0.00 | 62 | 1013.4 |
| 20260905182044 | 71 | 248 | 0.0 | 2.0 | 0.00 | 0.47 | 0.47 | 57 | 1025.4 |
| 20260905181726 | 0 | 46 | 1.0 | 2.0 | 0.00 | 0.00 | 0.00 | 1013.6 | |
| 20260905181703 | 89 | 87 | 2.0 | 7.0 | 0.00 | 0.07 | 0.00 | 62 | 1013.3 |
| 20260905181518 | 73 | 359 | 5.0 | 9.0 | 0.00 | 0.00 | 0.00 | 79 | 1022.8 |
| 20260905181224 | 0 | 36 | 1.0 | 1.0 | 0.00 | 0.00 | 0.00 | 1013.8 | |
| 20260905181203 | 90 | 39 | 3.0 | 7.0 | 0.00 | 0.07 | 0.00 | 60 | 1013.1 |
| 20260905181033 | 72 | 270 | 0.0 | 2.0 | 0.00 | 0.47 | 0.47 | 56 | 1025.2 |
| 20260905180719 | 0 | 16 | 2.0 | 2.0 | 0.00 | 0.00 | 0.00 | 1013.9 | |
| 20260905180704 | 89 | 188 | 2.0 | 6.0 | 0.00 | 0.07 | 0.00 | 60 | 1013.2 |
| 20260905180214 | 0 | 16 | 1.0 | 2.0 | 0.00 | 0.00 | 0.00 | 1014.0 | |
| 20260905180203 | 90 | 94 | 5.0 | 8.0 | 0.00 | 0.07 | 0.00 | 60 | 1013.4 |
| 20260905180046 | 72 | 248 | 0.0 | 2.0 | 0.00 | 0.47 | 0.47 | 55 | 1025.2 |
| 20260905180015 | 74 | 311 | 7.0 | 11.0 | 0.00 | 0.00 | 0.00 | 77 | 1022.9 |
| 20260905175709 | 0 | 49 | 1.0 | 1.0 | 0.00 | 0.00 | 0.00 | 1014.1 | |
| 20260905175204 | 91 | 126 | 3.0 | 6.0 | 0.00 | 0.07 | 0.00 | 57 | 1013.1 |
| 20260905175040 | 72 | 0.0 | 2.0 | 0.00 | 0.47 | 0.47 | 56 | 1025.0 | |
| 20260905174703 | 90 | 23 | 3.0 | 6.0 | 0.00 | 0.07 | 0.00 | 59 | 1013.2 |
| 20260905174659 | 0 | 52 | 0.0 | 1.0 | 0.00 | 0.00 | 0.00 | 1014.1 | |
| 20260905174516 | 75 | 324 | 4.0 | 8.0 | 0.00 | 0.00 | 0.00 | 77 | 1023.0 |
| 20260905174204 | 89 | 47 | 3.0 | 8.0 | 0.00 | 0.07 | 0.00 | 59 | 1013.4 |
| 20260905174155 | 0 | 356 | 0.0 | 0.0 | 0.00 | 0.00 | 0.00 | 1014.2 | |
| 20260905174044 | 73 | 225 | 0.0 | 2.0 | 0.00 | 0.47 | 0.47 | 55 | 1024.9 |
| 20260905173703 | 90 | 297 | 2.0 | 8.0 | 0.00 | 0.07 | 0.00 | 59 | 1013.4 |
| 20260905173650 | 0 | 98 | 1.0 | 2.0 | 0.00 | 0.00 | 0.00 | 1014.2 | |
| 20260905173204 | 90 | 209 | 3.0 | 7.0 | 0.00 | 0.07 | 0.00 | 59 | 1013.4 |
| 20260905173145 | 0 | 50 | 1.0 | 1.0 | 0.00 | 0.00 | 0.00 | 1014.0 | |
| 20260905173032 | 73 | 68 | 0.0 | 2.0 | 0.00 | 0.47 | 0.47 | 55 | 1024.7 |
| 20260905173014 | 76 | 296 | 6.0 | 9.0 | 0.00 | 0.00 | 0.00 | 75 | 1023.0 |
| 20260905172703 | 89 | 39 | 2.0 | 7.0 | 0.00 | 0.07 | 0.00 | 60 | 1013.8 |
| 20260905172645 | 0 | 15 | 0.0 | 1.0 | 0.00 | 0.00 | 0.00 | 1014.0 | |
| 20260905172203 | 89 | 36 | 4.0 | 10.0 | 0.00 | 0.07 | 0.00 | 60 | 1013.7 |
| 20260905172139 | 0 | 46 | 0.0 | 1.0 | 0.00 | 0.00 | 0.00 | 1014.0 | |
| 20260905172026 | 74 | 248 | 0.0 | 2.0 | 0.00 | 0.47 | 0.47 | 54 | 1024.6 |
| 20260905171703 | 89 | 28 | 3.0 | 7.0 | 0.00 | 0.07 | 0.00 | 59 | 1013.6 |
| 20260905171636 | 0 | 76 | 0.0 | 1.0 | 0.00 | 0.00 | 0.00 | 1014.3 | |
| 20260905171514 | 78 | 304 | 4.0 | 9.0 | 0.00 | 0.00 | 0.00 | 71 | 1022.9 |
| 20260905171204 | 90 | 37 | 2.0 | 6.0 | 0.00 | 0.07 | 0.00 | 58 | 1013.7 |
| 20260905171131 | 0 | 2 | 0.0 | 0.0 | 0.00 | 0.00 | 0.00 | 1014.3 | |
| 20260905171040 | 74 | 248 | 0.0 | 2.0 | 0.00 | 0.47 | 0.47 | 53 | 1024.6 |
| 20260905170703 | 88 | 78 | 2.0 | 5.0 | 0.00 | 0.07 | 0.00 | 61 | 1013.6 |
| 20260905170628 | 0 | 14 | 0.0 | 1.0 | 0.00 | 0.00 | 0.00 | 1014.3 | |
| 20260905170204 | 89 | 73 | 2.0 | 5.0 | 0.00 | 0.07 | 0.00 | 59 | 1013.6 |
| 20260905170123 | 0 | 352 | 0.0 | 0.0 | 0.00 | 0.00 | 0.00 | 1014.4 | |
| 20260905170044 | 75 | 270 | 0.0 | 2.0 | 0.00 | 0.47 | 0.47 | 53 | 1024.5 |
| 20260905170013 | 79 | 311 | 5.0 | 9.0 | 0.00 | 0.00 | 0.00 | 66 | 1022.9 |
| 20260905165704 | 90 | 116 | 3.0 | 8.0 | 0.00 | 0.07 | 0.00 | 59 | 1013.8 |
| 20260905165623 | 0 | 336 | 0.0 | 1.0 | 0.00 | 0.00 | 0.00 | 1014.4 | |
| 20260905165203 | 91 | 223 | 2.0 | 5.0 | 0.00 | 0.07 | 0.00 | 59 | 1013.7 |
| 20260905165118 | 0 | 258 | 1.0 | 1.0 | 0.00 | 0.00 | 0.00 | 1014.2 | |
| 20260905165032 | 75 | 249 | 1.0 | 4.0 | 0.00 | 0.47 | 0.47 | 52 | 1024.3 |
| 20260905164703 | 89 | 51 | 3.0 | 6.0 | 0.00 | 0.07 | 0.00 | 60 | 1013.7 |
| 20260905164613 | 0 | 319 | 0.0 | 1.0 | 0.00 | 0.00 | 0.00 | 1014.3 | |
| 20260905164520 | 80 | 338 | 4.0 | 9.0 | 0.00 | 0.00 | 0.00 | 66 | 1022.7 |
| 20260905164112 | 0 | 346 | 1.0 | 1.0 | 0.00 | 0.00 | 0.00 | 1014.4 | |
| 20260905164026 | 76 | 136 | 1.0 | 4.0 | 0.00 | 0.47 | 0.47 | 52 | 1024.3 |
| 20260905163704 | 89 | 245 | 2.0 | 5.0 | 0.00 | 0.07 | 0.00 | 60 | 1013.6 |
| 20260905163609 | 0 | 312 | 0.0 | 1.0 | 0.00 | 0.00 | 0.00 | 1014.5 | |
| 20260905163204 | 89 | 266 | 2.0 | 5.0 | 0.00 | 0.07 | 0.00 | 60 | 1013.9 |
| 20260905163105 | 0 | 315 | 0.0 | 0.0 | 0.00 | 0.00 | 0.00 | 1014.2 | |
| 20260905163020 | 76 | 236 | 1.0 | 2.0 | 0.00 | 0.47 | 0.47 | 51 | 1024.1 |
| 20260905163013 | 81 | 334 | 5.0 | 11.0 | 0.00 | 0.00 | 0.00 | 64 | 1022.7 |
| 20260905162703 | 88 | 28 | 3.0 | 7.0 | 0.00 | 0.07 | 0.00 | 63 | 1013.8 |
| 20260905162601 | 0 | 329 | 0.0 | 1.0 | 0.00 | 0.00 | 0.00 | 1014.5 | |
| 20260905162204 | 89 | 244 | 2.0 | 7.0 | 0.00 | 0.07 | 0.00 | 63 | 1013.7 |
| 20260905162103 | 76 | 284 | 1.0 | 4.0 | 0.00 | 0.47 | 0.47 | 50 | 1024.1 |
| 20260905162100 | 0 | 342 | 0.0 | 1.0 | 0.00 | 0.00 | 0.00 | 1014.5 | |
| 20260905161704 | 91 | 270 | 2.0 | 6.0 | 0.00 | 0.07 | 0.00 | 61 | 1014.1 |
| 20260905161555 | 0 | 337 | 0.0 | 1.0 | 0.00 | 0.00 | 0.00 | 1014.5 | |
| 20260905161512 | 82 | 313 | 7.0 | 10.0 | 0.00 | 0.00 | 0.00 | 65 | 1022.8 |
| 20260905161053 | 0 | 186 | 1.0 | 1.0 | 0.00 | 0.00 | 0.00 | 1014.4 | |
| 20260905160552 | 0 | 117 | 0.0 | 1.0 | 0.00 | 0.00 | 0.00 | 1014.6 | |
| 20260905160051 | 0 | 12 | 1.0 | 1.0 | 0.00 | 0.00 | 0.00 | 1014.7 | |
| 20260905160026 | 77 | 19 | 0.0 | 2.0 | 0.00 | 0.47 | 0.47 | 48 | 1024.1 |
| 20260905160014 | 83 | 352 | 4.0 | 9.0 | 0.00 | 0.00 | 0.00 | 62 | 1022.9 |
| 20260905155703 | 89 | 310 | 1.0 | 6.0 | 0.00 | 0.07 | 0.00 | 64 | 1014.2 |
| 20260905155546 | 0 | 357 | 0.0 | 0.0 | 0.00 | 0.00 | 0.00 | 1014.6 | |
| 20260905155203 | 88 | 351 | 3.0 | 7.0 | 0.00 | 0.07 | 0.00 | 63 | 1014.2 |
| 20260905155044 | 0 | 8 | 1.0 | 1.0 | 0.00 | 0.00 | 0.00 | 1014.7 | |
| 20260905155020 | 76 | 113 | 0.0 | 2.0 | 0.00 | 0.47 | 0.47 | 48 | 1024.1 |
| 20260905154539 | 0 | 352 | 1.0 | 2.0 | 0.00 | 0.00 | 0.00 | 1014.6 | |
| 20260905154511 | 84 | 7 | 5.0 | 10.0 | 0.00 | 0.00 | 0.00 | 54 | 1023.0 |
| 20260905154044 | 77 | 257 | 2.0 | 4.0 | 0.00 | 0.47 | 0.47 | 47 | 1023.9 |
| 20260905154035 | 0 | 58 | 0.0 | 1.0 | 0.00 | 0.00 | 0.00 | 1014.7 | |
| 20260905153704 | 89 | 21 | 4.0 | 7.0 | 0.00 | 0.07 | 0.00 | 62 | 1014.0 |
| 20260905153531 | 0 | 3 | 1.0 | 1.0 | 0.00 | 0.00 | 0.00 | 1014.4 | |
| 20260905153203 | 88 | 251 | 2.0 | 6.0 | 0.00 | 0.07 | 0.00 | 63 | 1014.0 |
| 20260905153032 | 78 | 281 | 1.0 | 7.0 | 0.00 | 0.47 | 0.47 | 50 | 1023.8 |
| 20260905153016 | 84 | 30 | 5.0 | 9.0 | 0.00 | 0.00 | 0.00 | 55 | 1023.1 |
| 20260905152704 | 88 | 3 | 3.0 | 6.0 | 0.00 | 0.07 | 0.00 | 64 | 1014.3 |
| 20260905152526 | 0 | 33 | 0.0 | 1.0 | 0.00 | 0.00 | 0.00 | 1014.7 | |
| 20260905152204 | 88 | 67 | 3.0 | 5.0 | 0.00 | 0.07 | 0.00 | 65 | 1014.3 |
| 20260905152026 | 79 | 239 | 1.0 | 4.0 | 0.00 | 0.47 | 0.47 | 48 | 1023.7 |
| 20260905152021 | 0 | 356 | 0.0 | 0.0 | 0.00 | 0.00 | 0.00 | 1014.5 | |
| 20260905151703 | 87 | 271 | 2.0 | 8.0 | 0.00 | 0.07 | 0.00 | 65 | 1014.2 |
| 20260905151516 | 84 | 18 | 6.0 | 11.0 | 0.00 | 0.00 | 0.00 | 54 | 1023.3 |
| 20260905151204 | 86 | 42 | 3.0 | 8.0 | 0.00 | 0.07 | 0.00 | 64 | 1014.1 |
| 20260905151020 | 80 | 264 | 1.0 | 4.0 | 0.00 | 0.47 | 0.47 | 48 | 1023.8 |
| 20260905151011 | 0 | 279 | 0.0 | 0.0 | 0.00 | 0.00 | 0.00 | 1014.8 | |
| 20260905150703 | 87 | 39 | 3.0 | 13.0 | 0.00 | 0.07 | 0.00 | 64 | 1014.0 |
| 20260905150506 | 0 | 277 | 1.0 | 1.0 | 0.00 | 0.00 | 0.00 | 1014.5 | |
| 20260905150204 | 87 | 18 | 4.0 | 9.0 | 0.00 | 0.07 | 0.00 | 65 | 1014.1 |
| 20260905150044 | 79 | 245 | 2.0 | 11.0 | 0.00 | 0.47 | 0.47 | 49 | 1023.8 |
| 20260905150004 | 0 | 13 | 0.0 | 0.0 | 0.00 | 0.00 | 0.00 | 1014.6 | |
| 20260905150002 | 84 | 5 | 3.0 | 10.0 | 0.00 | 0.00 | 0.00 | 55 | 1023.6 |
| 20260905145703 | 87 | 61 | 3.0 | 8.0 | 0.00 | 0.07 | 0.00 | 66 | 1014.1 |
| 20260905145458 | 0 | 57 | 0.0 | 1.0 | 0.00 | 0.00 | 0.00 | 1014.6 | |
| 20260905145203 | 87 | 22 | 5.0 | 7.0 | 0.00 | 0.07 | 0.00 | 66 | 1014.1 |
| 20260905145033 | 79 | 215 | 1.0 | 8.0 | 0.00 | 0.47 | 0.47 | 49 | 1023.8 |
| 20260905144957 | 0 | 341 | 1.0 | 1.0 | 0.00 | 0.00 | 0.00 | 1014.4 | |
| 20260905144704 | 88 | 314 | 2.0 | 6.0 | 0.00 | 0.07 | 0.00 | 65 | 1014.0 |
| 20260905144559 | 84 | 53 | 6.0 | 10.0 | 0.00 | 0.00 | 0.00 | 56 | 1023.6 |
| 20260905144452 | 0 | 358 | 0.0 | 1.0 | 0.00 | 0.00 | 0.00 | 1014.6 | |
| 20260905144204 | 87 | 20 | 2.0 | 7.0 | 0.00 | 0.07 | 0.00 | 65 | 1013.9 |
| 20260905144106 | 80 | 248 | 1.0 | 7.0 | 0.00 | 0.47 | 0.47 | 48 | 1023.9 |
| 20260905143951 | 0 | 322 | 1.0 | 1.0 | 0.00 | 0.00 | 0.00 | 1014.5 | |
| 20260905143704 | 87 | 69 | 3.0 | 6.0 | 0.00 | 0.07 | 0.00 | 66 | 1013.8 |
| 20260905143450 | 0 | 260 | 3.0 | 3.0 | 0.00 | 0.00 | 0.00 | 1014.3 | |
| 20260905143103 | 83 | 28 | 6.0 | 11.0 | 0.00 | 0.00 | 0.00 | 56 | 1023.7 |
| 20260905143020 | 79 | 265 | 1.0 | 6.0 | 0.00 | 0.47 | 0.47 | 49 | 1023.9 |
| 20260905142945 | 0 | 0.0 | 0.0 | 0.00 | 0.00 | 0.00 | 1014.5 | ||
| 20260905142703 | 87 | 64 | 3.0 | 6.0 | 0.00 | 0.07 | 0.00 | 67 | 1013.7 |
| 20260905142444 | 0 | 0.0 | 0.0 | 0.00 | 0.00 | 0.00 | 1014.7 | ||
| 20260905142203 | 87 | 41 | 2.0 | 6.0 | 0.00 | 0.07 | 0.00 | 68 | 1013.7 |
| 20260905142104 | 80 | 227 | 1.0 | 4.0 | 0.00 | 0.47 | 0.47 | 49 | 1023.9 |
| 20260905141940 | 0 | 0.0 | 0.0 | 0.00 | 0.00 | 0.00 | 1014.5 | ||
| 20260905141703 | 86 | 36 | 1.0 | 3.0 | 0.00 | 0.07 | 0.00 | 67 | 1013.6 |
| 20260905141558 | 83 | 43 | 7.0 | 11.0 | 0.00 | 0.00 | 0.00 | 57 | 1023.9 |
| 20260905141434 | 0 | 0.0 | 0.0 | 0.00 | 0.00 | 0.00 | 1014.5 | ||
| 20260905141204 | 85 | 296 | 3.0 | 5.0 | 0.00 | 0.07 | 0.00 | 69 | 1013.7 |
| 20260905141032 | 79 | 223 | 1.0 | 7.0 | 0.00 | 0.47 | 0.47 | 50 | 1023.9 |
| 20260905140931 | 0 | 0.0 | 0.0 | 0.00 | 0.00 | 0.00 | 1014.4 | ||
| 20260905140703 | 85 | 277 | 2.0 | 7.0 | 0.00 | 0.07 | 0.00 | 69 | 1013.4 |
| 20260905140426 | 0 | 0.0 | 0.0 | 0.00 | 0.00 | 0.00 | 1014.5 | ||
| 20260905140204 | 87 | 84 | 2.0 | 5.0 | 0.00 | 0.07 | 0.00 | 68 | 1013.7 |
| 20260905140055 | 83 | 51 | 6.0 | 12.0 | 0.00 | 0.00 | 0.00 | 57 | 1024.0 |
| 20260905140026 | 77 | 258 | 1.0 | 7.0 | 0.00 | 0.47 | 0.47 | 53 | 1024.1 |
| 20260905135924 | 0 | 0.0 | 0.0 | 0.00 | 0.00 | 0.00 | 1014.4 | ||
| 20260905135703 | 86 | 35 | 2.0 | 5.0 | 0.00 | 0.07 | 0.00 | 68 | 1013.5 |
| 20260905135419 | 0 | 0.0 | 0.0 | 0.00 | 0.00 | 0.00 | 1014.4 | ||
| 20260905135203 | 87 | 76 | 2.0 | 5.0 | 0.00 | 0.07 | 0.00 | 68 | 1013.4 |
| 20260905135020 | 77 | 318 | 1.0 | 4.0 | 0.00 | 0.47 | 0.47 | 53 | 1024.1 |
| 20260905134915 | 0 | 0.0 | 0.0 | 0.00 | 0.00 | 0.00 | 1014.4 | ||
| 20260905134704 | 87 | 70 | 2.0 | 3.0 | 0.00 | 0.07 | 0.00 | 67 | 1013.3 |
| 20260905134557 | 83 | 42 | 10.0 | 12.0 | 0.00 | 0.00 | 0.00 | 56 | 1024.1 |
| 20260905134409 | 0 | 0.0 | 0.0 | 0.00 | 0.00 | 0.00 | 1014.3 | ||
| 20260905134203 | 86 | 275 | 1.0 | 5.0 | 0.00 | 0.07 | 0.00 | 68 | 1013.3 |
| 20260905134044 | 77 | 262 | 2.0 | 8.0 | 0.00 | 0.47 | 0.47 | 53 | 1024.2 |
| 20260905133903 | 0 | 0.0 | 0.0 | 0.00 | 0.00 | 0.00 | 1014.2 | ||
| 20260905133358 | 0 | 0.0 | 0.0 | 0.00 | 0.00 | 0.00 | 1014.3 | ||
| 20260905133203 | 85 | 43 | 1.0 | 5.0 | 0.00 | 0.07 | 0.00 | 71 | 1013.6 |
| 20260905133101 | 82 | 25 | 7.0 | 12.0 | 0.00 | 0.00 | 0.00 | 58 | 1024.4 |
| 20260905133032 | 77 | 292 | 1.0 | 4.0 | 0.00 | 0.47 | 0.47 | 55 | 1024.3 |
| 20260905132857 | 0 | 0.0 | 0.0 | 0.00 | 0.00 | 0.00 | 1014.3 | ||
| 20260905132704 | 86 | 224 | 1.0 | 3.0 | 0.00 | 0.07 | 0.00 | 70 | 1013.5 |
| 20260905132352 | 0 | 0.0 | 0.0 | 0.00 | 0.00 | 0.00 | 1014.5 | ||
| 20260905132026 | 78 | 261 | 3.0 | 8.0 | 0.00 | 0.47 | 0.47 | 54 | 1024.4 |
| 20260905131852 | 0 | 0.0 | 0.0 | 0.00 | 0.00 | 0.00 | 1014.4 | ||
| 20260905131703 | 84 | 273 | 1.0 | 5.0 | 0.00 | 0.07 | 0.00 | 72 | 1013.5 |
| 20260905131554 | 83 | 45 | 8.0 | 13.0 | 0.00 | 0.00 | 0.00 | 58 | 1024.5 |
| 20260905131343 | 0 | 0.0 | 0.0 | 0.00 | 0.00 | 0.00 | 1014.4 | ||
| 20260905131203 | 83 | 174 | 2.0 | 3.0 | 0.00 | 0.07 | 0.00 | 75 | 1013.3 |
| 20260905131020 | 77 | 261 | 2.0 | 8.0 | 0.00 | 0.47 | 0.47 | 55 | 1024.3 |
| 20260905130837 | 0 | 0.0 | 0.0 | 0.00 | 0.00 | 0.00 | 1014.3 | ||
| 20260905130704 | 82 | 228 | 2.0 | 3.0 | 0.00 | 0.07 | 0.00 | 77 | 1013.5 |
| 20260905130336 | 0 | 0.0 | 0.0 | 0.00 | 0.00 | 0.00 | 1014.3 | ||
| 20260905130205 | 82 | 238 | 1.0 | 3.0 | 0.00 | 0.07 | 0.00 | 78 | 1013.7 |
| 20260905130104 | 77 | 261 | 2.0 | 6.0 | 0.00 | 0.47 | 0.47 | 55 | 1024.4 |
| 20260905130052 | 83 | 46 | 8.0 | 13.0 | 0.00 | 0.00 | 0.00 | 58 | 1024.7 |
| 20260905125832 | 0 | 0.0 | 0.0 | 0.00 | 0.00 | 0.00 | 1014.2 | ||
| 20260905125704 | 82 | 223 | 1.0 | 3.0 | 0.00 | 0.07 | 0.00 | 79 | 1013.6 |
| 20260905125326 | 0 | 0.0 | 0.0 | 0.00 | 0.00 | 0.00 | 1014.1 | ||
| 20260905125203 | 82 | 216 | 2.0 | 3.0 | 0.00 | 0.07 | 0.00 | 78 | 1013.6 |
| 20260905125032 | 76 | 222 | 1.0 | 4.0 | 0.00 | 0.47 | 0.47 | 57 | 1024.5 |
| 20260905124822 | 0 | 0.0 | 0.0 | 0.00 | 0.00 | 0.00 | 1014.2 | ||
| 20260905124704 | 82 | 236 | 0.0 | 2.0 | 0.00 | 0.07 | 0.00 | 78 | 1013.4 |
| 20260905124552 | 82 | 20 | 6.0 | 11.0 | 0.00 | 0.00 | 0.00 | 58 | 1024.8 |
| 20260905124319 | 0 | 0.0 | 0.0 | 0.00 | 0.00 | 0.00 | 1014.3 | ||
| 20260905124026 | 76 | 248 | 1.0 | 4.0 | 0.00 | 0.47 | 0.47 | 58 | 1024.5 |
| 20260905123819 | 0 | 0.0 | 0.0 | 0.00 | 0.00 | 0.00 | 1014.2 | ||
| 20260905123704 | 80 | 148 | 1.0 | 2.0 | 0.00 | 0.07 | 0.00 | 81 | 1013.5 |
| 20260905123316 | 0 | 0.0 | 0.0 | 0.00 | 0.00 | 0.00 | 1014.1 | ||
| 20260905123204 | 79 | 92 | 2.0 | 5.0 | 0.00 | 0.07 | 0.00 | 82 | 1013.4 |
| 20260905123104 | 82 | 88 | 6.0 | 12.0 | 0.00 | 0.00 | 0.00 | 60 | 1024.9 |
| 20260905123020 | 78 | 261 | 1.0 | 6.0 | 0.00 | 0.47 | 0.47 | 56 | 1024.5 |
| 20260905122815 | 0 | 0.0 | 0.0 | 0.00 | 0.00 | 0.00 | 1013.9 | ||
| 20260905122703 | 79 | 244 | 0.0 | 3.0 | 0.00 | 0.07 | 0.00 | 83 | 1013.6 |
| 20260905122314 | 0 | 0.0 | 0.0 | 0.00 | 0.00 | 0.00 | 1014.1 | ||
| 20260905122204 | 78 | 150 | 1.0 | 2.0 | 0.00 | 0.07 | 0.00 | 84 | 1013.6 |
| 20260905122044 | 77 | 260 | 2.0 | 4.0 | 0.00 | 0.47 | 0.47 | 57 | 1024.5 |
| 20260905121810 | 0 | 0.0 | 0.0 | 0.00 | 0.00 | 0.00 | 1013.9 | ||
| 20260905121704 | 78 | 189 | 1.0 | 2.0 | 0.00 | 0.07 | 0.00 | 86 | 1013.7 |
| 20260905121555 | 82 | 36 | 6.0 | 11.0 | 0.00 | 0.00 | 0.00 | 59 | 1025.1 |
| 20260905121307 | 0 | 0.0 | 0.0 | 0.00 | 0.00 | 0.00 | 1014.2 | ||
| 20260905121203 | 76 | 196 | 1.0 | 3.0 | 0.00 | 0.07 | 0.00 | 87 | 1013.5 |
| 20260905121052 | 77 | 272 | 1.0 | 7.0 | 0.00 | 0.47 | 0.47 | 57 | 1024.5 |
| 20260905120805 | 0 | 0.0 | 0.0 | 0.00 | 0.00 | 0.00 | 1014.0 | ||
| 20260905120703 | 76 | 216 | 2.0 | 3.0 | 0.00 | 0.07 | 0.00 | 89 | 1013.6 |
| 20260905120300 | 0 | 0.0 | 0.0 | 0.00 | 0.00 | 0.00 | 1013.9 | ||
| 20260905120204 | 75 | 211 | 2.0 | 3.0 | 0.00 | 0.07 | 0.00 | 90 | 1013.4 |
| 20260905120048 | 82 | 255 | 2.0 | 5.0 | 0.00 | 0.00 | 0.00 | 65 | 1025.1 |
| 20260905120026 | 78 | 286 | 1.0 | 6.0 | 0.00 | 0.47 | 0.47 | 56 | 1024.5 |
| 20260905115754 | 0 | 0.0 | 0.0 | 0.00 | 0.00 | 0.00 | 1013.9 | ||
| 20260905115704 | 74 | 244 | 1.0 | 2.0 | 0.00 | 0.07 | 0.00 | 92 | 1013.6 |
| 20260905115249 | 0 | 0.0 | 0.0 | 0.00 | 0.00 | 0.00 | 1013.7 | ||
| 20260905115204 | 74 | 176 | 1.0 | 2.0 | 0.00 | 0.07 | 0.00 | 93 | 1013.6 |
| 20260905115020 | 75 | 270 | 2.0 | 8.0 | 0.00 | 0.47 | 0.47 | 60 | 1024.5 |
| 20260905114748 | 0 | 0.0 | 0.0 | 0.00 | 0.00 | 0.00 | 1013.6 | ||
| 20260905114703 | 73 | 238 | 1.0 | 2.0 | 0.00 | 0.07 | 0.00 | 93 | 1013.6 |
| 20260905114546 | 81 | 234 | 3.0 | 9.0 | 0.00 | 0.00 | 0.00 | 65 | 1025.4 |
| 20260905114248 | 0 | 0.0 | 0.0 | 0.00 | 0.00 | 0.00 | 1013.8 | ||
| 20260905114203 | 73 | 233 | 1.0 | 2.0 | 0.00 | 0.07 | 0.00 | 93 | 1013.5 |
| 20260905114044 | 75 | 1 | 1.0 | 4.0 | 0.00 | 0.47 | 0.47 | 61 | 1024.7 |
| 20260905113747 | 0 | 0.0 | 0.0 | 0.00 | 0.00 | 0.00 | 1013.6 | ||
| 20260905113703 | 73 | 240 | 1.0 | 2.0 | 0.00 | 0.07 | 0.00 | 94 | 1013.5 |
| 20260905113243 | 0 | 0.0 | 0.0 | 0.00 | 0.00 | 0.00 | 1013.6 | ||
| 20260905113204 | 73 | 228 | 1.0 | 3.0 | 0.00 | 0.07 | 0.00 | 94 | 1013.3 |
| 20260905113045 | 81 | 7 | 1.0 | 7.0 | 0.00 | 0.00 | 0.00 | 62 | 1025.7 |
| 20260905113032 | 75 | 244 | 3.0 | 7.0 | 0.00 | 0.47 | 0.47 | 61 | 1024.7 |
| 20260905112738 | 0 | 0.0 | 0.0 | 0.00 | 0.00 | 0.00 | 1013.7 | ||
| 20260905112704 | 73 | 228 | 2.0 | 3.0 | 0.00 | 0.07 | 0.00 | 94 | 1013.5 |
| 20260905112237 | 0 | 0.0 | 0.0 | 0.00 | 0.00 | 0.00 | 1013.7 | ||
| 20260905112204 | 73 | 268 | 2.0 | 2.0 | 0.00 | 0.07 | 0.00 | 94 | 1013.2 |
| 20260905112026 | 75 | 271 | 2.0 | 7.0 | 0.00 | 0.47 | 0.47 | 61 | 1024.7 |
| 20260905111733 | 0 | 0.0 | 0.0 | 0.00 | 0.00 | 0.00 | 1013.5 | ||
| 20260905111703 | 72 | 255 | 2.0 | 3.0 | 0.00 | 0.07 | 0.00 | 94 | 1013.2 |
| 20260905111543 | 79 | 21 | 1.0 | 11.0 | 0.00 | 0.00 | 0.00 | 64 | 1025.7 |
| 20260905111227 | 0 | 0.0 | 0.0 | 0.00 | 0.00 | 0.00 | 1013.5 | ||
| 20260905111204 | 72 | 264 | 1.0 | 3.0 | 0.00 | 0.07 | 0.00 | 94 | 1013.2 |
| 20260905111020 | 74 | 264 | 2.0 | 9.0 | 0.00 | 0.47 | 0.47 | 63 | 1024.8 |
| 20260905110727 | 0 | 0.0 | 0.0 | 0.00 | 0.00 | 0.00 | 1013.5 | ||
| 20260905110704 | 72 | 253 | 2.0 | 5.0 | 0.00 | 0.07 | 0.00 | 94 | 1013.1 |
| 20260905110221 | 0 | 0.0 | 0.0 | 0.00 | 0.00 | 0.00 | 1013.6 | ||
| 20260905110204 | 72 | 244 | 2.0 | 5.0 | 0.00 | 0.07 | 0.00 | 94 | 1013.1 |
| 20260905110044 | 73 | 26 | 2.0 | 4.0 | 0.00 | 0.47 | 0.47 | 65 | 1024.9 |
| 20260905110042 | 80 | 348 | 7.0 | 10.0 | 0.00 | 0.00 | 0.00 | 65 | 1025.8 |
| 20260905105717 | 0 | 0.0 | 0.0 | 0.00 | 0.00 | 0.00 | 1013.6 | ||
| 20260905105704 | 72 | 257 | 1.0 | 2.0 | 0.00 | 0.07 | 0.00 | 95 | 1013.1 |
| 20260905105215 | 0 | 0.0 | 0.0 | 0.00 | 0.00 | 0.00 | 1013.5 | ||
| 20260905105204 | 72 | 278 | 1.0 | 2.0 | 0.00 | 0.07 | 0.00 | 95 | 1013.0 |
| 20260905105032 | 72 | 274 | 1.0 | 7.0 | 0.00 | 0.47 | 0.47 | 66 | 1024.9 |
| 20260905104710 | 0 | 0.0 | 0.0 | 0.00 | 0.00 | 0.00 | 1013.5 | ||
| 20260905104704 | 72 | 259 | 1.0 | 2.0 | 0.00 | 0.07 | 0.00 | 95 | 1013.0 |
| 20260905104545 | 79 | 55 | 5.0 | 11.0 | 0.00 | 0.00 | 0.00 | 66 | 1025.9 |
| 20260905104206 | 0 | 0.0 | 0.0 | 0.00 | 0.00 | 0.00 | 1013.5 | ||
| 20260905104203 | 72 | 273 | 1.0 | 3.0 | 0.00 | 0.07 | 0.00 | 95 | 1012.9 |
| 20260905104026 | 72 | 232 | 2.0 | 7.0 | 0.00 | 0.47 | 0.47 | 66 | 1024.9 |
| 20260905103703 | 72 | 256 | 1.0 | 2.0 | 0.00 | 0.07 | 0.00 | 94 | 1013.0 |
| 20260905103701 | 0 | 0.0 | 0.0 | 0.00 | 0.00 | 0.00 | 1013.8 | ||
| 20260905103203 | 72 | 241 | 1.0 | 2.0 | 0.00 | 0.07 | 0.00 | 94 | 1012.9 |
| 20260905103157 | 0 | 0.0 | 0.0 | 0.00 | 0.00 | 0.00 | 1013.5 | ||
| 20260905103040 | 79 | 26 | 5.0 | 8.0 | 0.00 | 0.00 | 0.00 | 65 | 1026.0 |
| 20260905103020 | 72 | 118 | 2.0 | 6.0 | 0.00 | 0.47 | 0.47 | 67 | 1024.9 |
| 20260905102704 | 72 | 252 | 2.0 | 3.0 | 0.00 | 0.07 | 0.00 | 94 | 1012.9 |
| 20260905102653 | 0 | 0.0 | 0.0 | 0.00 | 0.00 | 0.00 | 1013.7 | ||
| 20260905102203 | 72 | 259 | 2.0 | 3.0 | 0.00 | 0.07 | 0.00 | 94 | 1013.0 |
| 20260905102149 | 0 | 0.0 | 0.0 | 0.00 | 0.00 | 0.00 | 1013.7 | ||
| 20260905102144 | 71 | 272 | 1.0 | 4.0 | 0.00 | 0.47 | 0.47 | 69 | 1024.9 |
| 20260905101704 | 72 | 267 | 2.0 | 2.0 | 0.00 | 0.07 | 0.00 | 94 | 1012.9 |
| 20260905101648 | 0 | 0.0 | 0.0 | 0.00 | 0.00 | 0.00 | 1013.5 | ||
| 20260905101542 | 77 | 21 | 4.0 | 11.0 | 0.00 | 0.00 | 0.00 | 67 | 1026.1 |
| 20260905101204 | 72 | 250 | 1.0 | 2.0 | 0.00 | 0.07 | 0.00 | 94 | 1012.8 |
| 20260905101146 | 0 | 0.0 | 0.0 | 0.00 | 0.00 | 0.00 | 1013.5 | ||
| 20260905101032 | 69 | 247 | 1.0 | 2.0 | 0.00 | 0.47 | 0.47 | 73 | 1024.8 |
| 20260905100703 | 72 | 252 | 1.0 | 3.0 | 0.00 | 0.07 | 0.00 | 94 | 1012.8 |
| 20260905100642 | 0 | 0.0 | 0.0 | 0.00 | 0.00 | 0.00 | 1013.5 | ||
| 20260905100204 | 72 | 247 | 1.0 | 2.0 | 0.00 | 0.07 | 0.00 | 93 | 1012.9 |
| 20260905100137 | 0 | 0.0 | 0.0 | 0.00 | 0.00 | 0.00 | 1013.2 | ||
| 20260905100108 | 77 | 34 | 6.0 | 11.0 | 0.00 | 0.00 | 0.00 | 69 | 1026.1 |
| 20260905100026 | 67 | 257 | 2.0 | 4.0 | 0.00 | 0.47 | 0.47 | 74 | 1024.9 |
| 20260905095704 | 72 | 271 | 1.0 | 2.0 | 0.00 | 0.07 | 0.00 | 93 | 1013.0 |
| 20260905095636 | 0 | 0.0 | 0.0 | 0.00 | 0.00 | 0.00 | 1013.5 | ||
| 20260905095204 | 72 | 262 | 1.0 | 3.0 | 0.00 | 0.07 | 0.00 | 93 | 1013.1 |
| 20260905095131 | 0 | 0.0 | 0.0 | 0.00 | 0.00 | 0.00 | 1013.3 | ||
| 20260905095020 | 66 | 247 | 1.0 | 6.0 | 0.00 | 0.47 | 0.47 | 76 | 1025.1 |
| 20260905094704 | 72 | 272 | 1.0 | 2.0 | 0.00 | 0.07 | 0.00 | 93 | 1013.1 |
| 20260905094627 | 0 | 0.0 | 0.0 | 0.00 | 0.00 | 0.00 | 1013.4 | ||
| 20260905094545 | 77 | 53 | 6.0 | 10.0 | 0.00 | 0.00 | 0.00 | 69 | 1026.0 |
| 20260905094203 | 72 | 282 | 1.0 | 2.0 | 0.00 | 0.07 | 0.00 | 93 | 1013.1 |
| 20260905094120 | 0 | 0.0 | 0.0 | 0.00 | 0.00 | 0.00 | 1013.4 | ||
| 20260905094044 | 65 | 232 | 1.0 | 4.0 | 0.00 | 0.47 | 0.47 | 77 | 1025.0 |
| 20260905093704 | 72 | 286 | 2.0 | 5.0 | 0.00 | 0.07 | 0.00 | 93 | 1013.0 |
| 20260905093614 | 0 | 0.0 | 0.0 | 0.00 | 0.00 | 0.00 | 1013.4 | ||
| 20260905093204 | 72 | 246 | 2.0 | 3.0 | 0.00 | 0.07 | 0.00 | 93 | 1013.1 |
| 20260905093111 | 0 | 0.0 | 0.0 | 0.00 | 0.00 | 0.00 | 1013.4 | ||
| 20260905093033 | 64 | 255 | 1.0 | 4.0 | 0.00 | 0.47 | 0.47 | 79 | 1025.2 |
| 20260905093031 | 77 | 55 | 4.0 | 9.0 | 0.00 | 0.00 | 0.00 | 75 | 1025.8 |
| 20260905092704 | 72 | 249 | 2.0 | 3.0 | 0.00 | 0.07 | 0.00 | 93 | 1013.1 |
| 20260905092605 | 0 | 0.0 | 0.0 | 0.00 | 0.00 | 0.00 | 1013.4 | ||
| 20260905092204 | 72 | 278 | 3.0 | 6.0 | 0.00 | 0.07 | 0.00 | 93 | 1013.0 |
| 20260905092101 | 0 | 0.0 | 0.0 | 0.00 | 0.00 | 0.00 | 1013.3 | ||
| 20260905092026 | 64 | 245 | 1.0 | 4.0 | 0.00 | 0.47 | 0.47 | 80 | 1025.1 |
| 20260905091704 | 72 | 277 | 2.0 | 6.0 | 0.00 | 0.07 | 0.00 | 93 | 1013.0 |
| 20260905091600 | 0 | 0.0 | 0.0 | 0.00 | 0.00 | 0.00 | 1013.2 | ||
| 20260905091527 | 74 | 36 | 5.0 | 8.0 | 0.00 | 0.00 | 0.00 | 77 | 1025.8 |
| 20260905091204 | 72 | 241 | 3.0 | 5.0 | 0.00 | 0.07 | 0.00 | 93 | 1013.1 |
| 20260905091055 | 0 | 0.0 | 0.0 | 0.00 | 0.00 | 0.00 | 1013.3 | ||
| 20260905091020 | 64 | 249 | 1.0 | 4.0 | 0.00 | 0.47 | 0.47 | 80 | 1025.2 |
| 20260905090703 | 72 | 251 | 2.0 | 5.0 | 0.00 | 0.07 | 0.00 | 93 | 1013.1 |
| 20260905090554 | 0 | 0.0 | 0.0 | 0.00 | 0.00 | 0.00 | 1013.4 | ||
| 20260905090204 | 72 | 278 | 2.0 | 5.0 | 0.00 | 0.07 | 0.00 | 93 | 1012.9 |
| 20260905090050 | 0 | 0.0 | 0.0 | 0.00 | 0.00 | 0.00 | 1013.3 | ||
| 20260905090044 | 64 | 236 | 0.0 | 2.0 | 0.00 | 0.47 | 0.47 | 79 | 1025.3 |
| 20260905090024 | 73 | 76 | 5.0 | 10.0 | 0.00 | 0.00 | 0.00 | 78 | 1025.7 |
| 20260905085703 | 72 | 245 | 3.0 | 6.0 | 0.00 | 0.07 | 0.00 | 93 | 1013.0 |
| 20260905085548 | 0 | 0.0 | 0.0 | 0.00 | 0.00 | 0.00 | 1013.3 | ||
| 20260905085044 | 0 | 0.0 | 0.0 | 0.00 | 0.00 | 0.00 | 1013.2 | ||
| 20260905085032 | 64 | 248 | 0.0 | 2.0 | 0.00 | 0.47 | 0.47 | 76 | 1025.3 |
| 20260905084543 | 0 | 0.0 | 0.0 | 0.00 | 0.00 | 0.00 | 1013.2 | ||
| 20260905084523 | 72 | 86 | 3.0 | 9.0 | 0.00 | 0.00 | 0.00 | 81 | 1025.8 |
| 20260905084203 | 72 | 254 | 3.0 | 6.0 | 0.00 | 0.07 | 0.00 | 92 | 1013.0 |
| 20260905084038 | 0 | 0.0 | 0.0 | 0.00 | 0.00 | 0.00 | 1013.2 | ||
| 20260905084026 | 65 | 249 | 1.0 | 4.0 | 0.00 | 0.47 | 0.47 | 74 | 1025.2 |
| 20260905083704 | 72 | 253 | 2.0 | 5.0 | 0.00 | 0.07 | 0.00 | 92 | 1012.9 |
| 20260905083533 | 0 | 0.0 | 0.0 | 0.00 | 0.00 | 0.00 | 1013.3 | ||
| 20260905083204 | 72 | 254 | 3.0 | 6.0 | 0.00 | 0.07 | 0.00 | 92 | 1012.8 |
| 20260905083031 | 0 | 0.0 | 0.0 | 0.00 | 0.00 | 0.00 | 1013.2 | ||
| 20260905083022 | 72 | 38 | 4.0 | 6.0 | 0.00 | 0.00 | 0.00 | 80 | 1025.7 |
| 20260905083020 | 64 | 248 | 0.0 | 2.0 | 0.00 | 0.47 | 0.47 | 73 | 1025.5 |
| 20260905082704 | 72 | 256 | 3.0 | 6.0 | 0.00 | 0.07 | 0.00 | 92 | 1012.9 |
| 20260905082525 | 0 | 0.0 | 0.0 | 0.00 | 0.00 | 0.00 | 1013.2 | ||
| 20260905082203 | 72 | 243 | 4.0 | 6.0 | 0.00 | 0.07 | 0.00 | 92 | 1012.9 |
| 20260905082044 | 64 | 248 | 0.0 | 2.0 | 0.00 | 0.47 | 0.47 | 74 | 1024.9 |
| 20260905082021 | 0 | 0.0 | 0.0 | 0.00 | 0.00 | 0.00 | 1013.1 | ||
| 20260905081704 | 72 | 253 | 3.0 | 6.0 | 0.00 | 0.07 | 0.00 | 92 | 1013.0 |
| 20260905081521 | 73 | 70 | 2.0 | 7.0 | 0.00 | 0.00 | 0.00 | 79 | 1025.6 |
| 20260905081514 | 0 | 0.0 | 0.0 | 0.00 | 0.00 | 0.00 | 1013.0 | ||
| 20260905081204 | 72 | 252 | 3.0 | 9.0 | 0.00 | 0.07 | 0.00 | 92 | 1013.0 |
| 20260905081032 | 64 | 252 | 4.0 | 8.0 | 0.00 | 0.47 | 0.47 | 75 | 1025.4 |
| 20260905081009 | 0 | 0.0 | 0.0 | 0.00 | 0.00 | 0.00 | 1013.0 | ||
| 20260905080503 | 0 | 0.0 | 0.0 | 0.00 | 0.00 | 0.00 | 1013.1 | ||
| 20260905080203 | 72 | 265 | 3.0 | 5.0 | 0.00 | 0.07 | 0.00 | 92 | 1012.9 |
| 20260905080026 | 63 | 241 | 2.0 | 6.0 | 0.00 | 0.47 | 0.47 | 76 | 1025.4 |
| 20260905080021 | 72 | 103 | 4.0 | 7.0 | 0.00 | 0.00 | 0.00 | 81 | 1025.5 |
| 20260905080002 | 0 | 0.0 | 0.0 | 0.00 | 0.00 | 0.00 | 1013.2 | ||
| 20260905075703 | 72 | 310 | 2.0 | 3.0 | 0.00 | 0.07 | 0.00 | 92 | 1013.0 |
| 20260905075457 | 0 | 0.0 | 0.0 | 0.00 | 0.00 | 0.00 | 1013.1 | ||
| 20260905075203 | 72 | 277 | 3.0 | 5.0 | 0.00 | 0.07 | 0.00 | 92 | 1012.9 |
| 20260905075020 | 63 | 263 | 1.0 | 4.0 | 0.00 | 0.47 | 0.47 | 76 | 1025.3 |
| 20260905074955 | 0 | 0.0 | 0.0 | 0.00 | 0.00 | 0.00 | 1013.2 | ||
| 20260905074522 | 71 | 97 | 4.0 | 7.0 | 0.00 | 0.00 | 0.00 | 85 | 1025.6 |
| 20260905074452 | 0 | 0.0 | 0.0 | 0.00 | 0.00 | 0.00 | 1013.2 | ||
| 20260905074203 | 72 | 286 | 2.0 | 5.0 | 0.00 | 0.07 | 0.00 | 92 | 1012.8 |
| 20260905074044 | 63 | 252 | 1.0 | 2.0 | 0.00 | 0.47 | 0.47 | 77 | 1025.5 |
| 20260905073947 | 0 | 0.0 | 0.0 | 0.00 | 0.00 | 0.00 | 1013.1 | ||
| 20260905073704 | 72 | 260 | 2.0 | 5.0 | 0.00 | 0.07 | 0.00 | 92 | 1013.0 |
| 20260905073442 | 0 | 0.0 | 0.0 | 0.00 | 0.00 | 0.00 | 1013.2 | ||
| 20260905073203 | 72 | 262 | 2.0 | 8.0 | 0.00 | 0.07 | 0.00 | 92 | 1012.7 |
| 20260905073053 | 64 | 256 | 0.0 | 2.0 | 0.00 | 0.47 | 0.47 | 75 | 1025.5 |
| 20260905073012 | 70 | 72 | 5.0 | 8.0 | 0.00 | 0.00 | 0.00 | 88 | 1025.4 |
| 20260905072937 | 0 | 0.0 | 0.0 | 0.00 | 0.00 | 0.00 | 1013.1 | ||
| 20260905072704 | 72 | 239 | 5.0 | 8.0 | 0.00 | 0.07 | 0.00 | 92 | 1012.9 |
| 20260905072432 | 0 | 0.0 | 0.0 | 0.00 | 0.00 | 0.00 | 1013.2 | ||
| 20260905072204 | 72 | 245 | 4.0 | 8.0 | 0.00 | 0.07 | 0.00 | 92 | 1013.0 |
| 20260905072048 | 64 | 180 | 0.0 | 2.0 | 0.00 | 0.47 | 0.47 | 74 | 1024.9 |
| 20260905071928 | 0 | 0.0 | 0.0 | 0.00 | 0.00 | 0.00 | 1013.2 | ||
| 20260905071703 | 72 | 262 | 2.0 | 6.0 | 0.00 | 0.07 | 0.00 | 92 | 1013.0 |
| 20260905071509 | 68 | 80 | 2.0 | 6.0 | 0.00 | 0.00 | 0.00 | 90 | 1025.4 |
| 20260905071425 | 0 | 0.0 | 0.0 | 0.00 | 0.00 | 0.00 | 1013.2 | ||
| 20260905071204 | 72 | 252 | 3.0 | 5.0 | 0.00 | 0.07 | 0.00 | 92 | 1012.8 |
| 20260905071038 | 64 | 0.0 | 2.0 | 0.00 | 0.47 | 0.47 | 73 | 1024.9 | |
| 20260905070918 | 0 | 0.0 | 0.0 | 0.00 | 0.00 | 0.00 | 1013.2 | ||
| 20260905070415 | 0 | 0.0 | 0.0 | 0.00 | 0.00 | 0.00 | 1013.2 | ||
| 20260905070203 | 72 | 241 | 4.0 | 8.0 | 0.00 | 0.07 | 0.00 | 91 | 1012.8 |
| 20260905070007 | 67 | 78 | 1.0 | 6.0 | 0.00 | 0.00 | 0.00 | 91 | 1025.4 |
| 20260905065914 | 0 | 0.0 | 0.0 | 0.00 | 0.00 | 0.00 | 1013.2 | ||
| 20260905065704 | 73 | 255 | 2.0 | 6.0 | 0.00 | 0.07 | 0.00 | 91 | 1012.8 |
| 20260905065412 | 0 | 0.0 | 0.0 | 0.00 | 0.00 | 0.00 | 1013.0 | ||
| 20260905065204 | 73 | 292 | 4.0 | 10.0 | 0.00 | 0.07 | 0.00 | 91 | 1013.0 |
| 20260905064908 | 0 | 0.0 | 0.0 | 0.00 | 0.00 | 0.00 | 1013.2 | ||
| 20260905064508 | 66 | 27 | 1.0 | 3.0 | 0.00 | 0.00 | 0.00 | 91 | 1025.1 |
| 20260905064403 | 0 | 0.0 | 0.0 | 0.00 | 0.00 | 0.00 | 1013.1 | ||
| 20260905064204 | 73 | 288 | 3.0 | 6.0 | 0.00 | 0.07 | 0.00 | 91 | 1013.1 |
| 20260905063902 | 0 | 0.0 | 0.0 | 0.00 | 0.00 | 0.00 | 1013.2 | ||
| 20260905063704 | 73 | 248 | 5.0 | 8.0 | 0.00 | 0.07 | 0.00 | 91 | 1013.3 |
| 20260905063358 | 0 | 0.0 | 0.0 | 0.00 | 0.00 | 0.00 | 1013.0 | ||
| 20260905063203 | 73 | 264 | 2.0 | 6.0 | 0.00 | 0.07 | 0.00 | 91 | 1013.4 |
| 20260905063005 | 65 | 3 | 0.0 | 1.0 | 0.00 | 0.00 | 0.00 | 90 | 1024.9 |
| 20260905062854 | 0 | 0.0 | 0.0 | 0.00 | 0.00 | 0.00 | 1013.1 | ||
| 20260905062703 | 73 | 251 | 3.0 | 6.0 | 0.00 | 0.07 | 0.00 | 91 | 1013.3 |
| 20260905062354 | 0 | 0.0 | 0.0 | 0.00 | 0.00 | 0.00 | 1012.9 | ||
| 20260905062204 | 72 | 274 | 3.0 | 8.0 | 0.00 | 0.07 | 0.00 | 92 | 1013.4 |
| 20260905061849 | 0 | 0.0 | 0.0 | 0.00 | 0.00 | 0.00 | 1013.2 | ||
| 20260905061503 | 66 | 3 | 0.0 | 2.0 | 0.00 | 0.00 | 0.00 | 90 | 1025.0 |
| 20260905061343 | 0 | 0.0 | 0.0 | 0.00 | 0.00 | 0.00 | 1013.1 | ||
| 20260905061204 | 72 | 283 | 2.0 | 6.0 | 0.00 | 0.07 | 0.00 | 92 | 1013.2 |
| 20260905060837 | 0 | 0.0 | 0.0 | 0.00 | 0.00 | 0.00 | 1013.0 | ||
| 20260905060703 | 72 | 276 | 3.0 | 8.0 | 0.00 | 0.07 | 0.00 | 93 | 1013.5 |
| 20260905060329 | 0 | 0.0 | 0.0 | 0.00 | 0.00 | 0.00 | 1013.3 | ||
| 20260905060203 | 72 | 247 | 3.0 | 6.0 | 0.00 | 0.07 | 0.00 | 93 | 1013.5 |
| 20260905060003 | 66 | 3 | 0.0 | 0.0 | 0.00 | 0.00 | 0.00 | 90 | 1024.9 |
| 20260905055828 | 0 | 0.0 | 0.0 | 0.00 | 0.00 | 0.00 | 1013.0 | ||
| 20260905055704 | 72 | 249 | 2.0 | 3.0 | 0.00 | 0.07 | 0.00 | 93 | 1013.7 |
| 20260905055323 | 0 | 0.0 | 0.0 | 0.00 | 0.00 | 0.00 | 1013.0 | ||
| 20260905055203 | 72 | 273 | 2.0 | 3.0 | 0.00 | 0.07 | 0.00 | 93 | 1013.5 |
| 20260905054822 | 0 | 0.0 | 0.0 | 0.00 | 0.00 | 0.00 | 1013.0 | ||
| 20260905054708 | 66 | 3 | 0.0 | 2.0 | 0.00 | 0.00 | 0.00 | 89 | 1024.6 |
| 20260905054703 | 72 | 248 | 2.0 | 3.0 | 0.00 | 0.07 | 0.00 | 93 | 1013.7 |
| 20260905054319 | 0 | 0.0 | 0.0 | 0.00 | 0.00 | 0.00 | 1013.2 | ||
| 20260905054203 | 72 | 251 | 2.0 | 6.0 | 0.00 | 0.07 | 0.00 | 93 | 1013.7 |
| 20260905053818 | 0 | 0.0 | 0.0 | 0.00 | 0.00 | 0.00 | 1013.1 | ||
| 20260905053704 | 72 | 247 | 2.0 | 6.0 | 0.00 | 0.07 | 0.00 | 93 | 1013.8 |
| 20260905053313 | 0 | 0.0 | 0.0 | 0.00 | 0.00 | 0.00 | 1013.3 | ||
| 20260905053203 | 72 | 251 | 2.0 | 7.0 | 0.00 | 0.07 | 0.00 | 93 | 1013.8 |
| 20260905053058 | 66 | 3 | 0.0 | 3.0 | 0.00 | 0.00 | 0.00 | 90 | 1024.3 |
| 20260905052808 | 0 | 0.0 | 0.0 | 0.00 | 0.00 | 0.00 | 1013.3 | ||
| 20260905052703 | 72 | 262 | 2.0 | 5.0 | 0.00 | 0.07 | 0.00 | 93 | 1013.7 |
| 20260905052307 | 0 | 0.0 | 0.0 | 0.00 | 0.00 | 0.00 | 1013.5 | ||
| 20260905052204 | 72 | 268 | 1.0 | 5.0 | 0.00 | 0.07 | 0.00 | 93 | 1013.8 |
| 20260905051807 | 0 | 0.0 | 0.0 | 0.00 | 0.00 | 0.00 | 1013.4 | ||
| 20260905051704 | 72 | 254 | 3.0 | 5.0 | 0.00 | 0.07 | 0.00 | 92 | 1013.7 |
| 20260905051556 | 67 | 15 | 2.0 | 9.0 | 0.00 | 0.00 | 0.00 | 90 | 1024.2 |
| 20260905051304 | 0 | 0.0 | 0.0 | 0.00 | 0.00 | 0.00 | 1013.5 | ||
| 20260905051204 | 72 | 246 | 3.0 | 6.0 | 0.00 | 0.07 | 0.00 | 92 | 1013.9 |
| 20260905050800 | 0 | 0.0 | 0.0 | 0.00 | 0.00 | 0.00 | 1013.6 | ||
| 20260905050704 | 72 | 254 | 1.0 | 2.0 | 0.00 | 0.07 | 0.00 | 92 | 1013.9 |
| 20260905050256 | 0 | 0.0 | 0.0 | 0.00 | 0.00 | 0.00 | 1013.7 | ||
| 20260905050203 | 72 | 253 | 2.0 | 5.0 | 0.00 | 0.07 | 0.00 | 92 | 1013.9 |
| 20260905050055 | 67 | 9 | 5.0 | 9.0 | 0.00 | 0.00 | 0.00 | 90 | 1024.1 |
| 20260905045751 | 0 | 0.0 | 0.0 | 0.00 | 0.00 | 0.00 | 1013.7 | ||
| 20260905045703 | 72 | 234 | 1.0 | 2.0 | 0.00 | 0.07 | 0.00 | 92 | 1014.2 |
| 20260905045246 | 0 | 0.0 | 0.0 | 0.00 | 0.00 | 0.00 | 1013.7 | ||
| 20260905045204 | 72 | 266 | 1.0 | 3.0 | 0.00 | 0.07 | 0.00 | 92 | 1014.0 |
| 20260905044741 | 0 | 0.0 | 0.0 | 0.00 | 0.00 | 0.00 | 1013.7 | ||
| 20260905044703 | 73 | 244 | 2.0 | 2.0 | 0.00 | 0.07 | 0.00 | 92 | 1014.2 |
| 20260905044606 | 67 | 16 | 2.0 | 6.0 | 0.00 | 0.00 | 0.00 | 90 | 1024.2 |
| 20260905044236 | 0 | 0.0 | 0.0 | 0.00 | 0.00 | 0.00 | 1013.6 | ||
| 20260905044203 | 73 | 217 | 1.0 | 5.0 | 0.00 | 0.07 | 0.00 | 91 | 1013.9 |
| 20260905043735 | 0 | 0.0 | 0.0 | 0.00 | 0.00 | 0.00 | 1013.5 | ||
| 20260905043703 | 73 | 270 | 1.0 | 5.0 | 0.00 | 0.07 | 0.00 | 91 | 1014.3 |
| 20260905043235 | 0 | 0.0 | 0.0 | 0.00 | 0.00 | 0.00 | 1013.7 | ||
| 20260905043101 | 67 | 334 | 3.0 | 5.0 | 0.00 | 0.00 | 0.00 | 90 | 1024.2 |
| 20260905042730 | 0 | 0.0 | 0.0 | 0.00 | 0.00 | 0.00 | 1013.8 | ||
| 20260905042704 | 73 | 245 | 2.0 | 3.0 | 0.00 | 0.07 | 0.00 | 91 | 1014.2 |
| 20260905042229 | 0 | 0.0 | 0.0 | 0.00 | 0.00 | 0.00 | 1013.8 | ||
| 20260905042204 | 73 | 281 | 2.0 | 3.0 | 0.00 | 0.07 | 0.00 | 91 | 1014.3 |
| 20260905041725 | 0 | 0.0 | 0.0 | 0.00 | 0.00 | 0.00 | 1014.0 | ||
| 20260905041704 | 73 | 284 | 3.0 | 7.0 | 0.00 | 0.07 | 0.00 | 91 | 1014.2 |
| 20260905041554 | 67 | 355 | 2.0 | 9.0 | 0.00 | 0.00 | 0.00 | 90 | 1024.1 |
| 20260905041221 | 0 | 0.0 | 0.0 | 0.00 | 0.00 | 0.00 | 1013.9 | ||
| 20260905041203 | 73 | 278 | 2.0 | 3.0 | 0.00 | 0.07 | 0.00 | 91 | 1014.2 |
| 20260905040715 | 0 | 0.0 | 0.0 | 0.00 | 0.00 | 0.00 | 1013.9 | ||
| 20260905040703 | 73 | 257 | 1.0 | 2.0 | 0.00 | 0.07 | 0.00 | 91 | 1014.0 |
| 20260905040214 | 0 | 0.0 | 0.0 | 0.00 | 0.00 | 0.00 | 1014.1 | ||
| 20260905040204 | 73 | 192 | 1.0 | 6.0 | 0.00 | 0.07 | 0.00 | 90 | 1013.9 |
| 20260905040105 | 67 | 356 | 4.0 | 9.0 | 0.00 | 0.00 | 0.00 | 90 | 1024.1 |
| 20260905035709 | 0 | 0.0 | 0.0 | 0.00 | 0.00 | 0.00 | 1014.2 | ||
| 20260905035206 | 0 | 0.0 | 0.0 | 0.00 | 0.00 | 0.00 | 1014.1 | ||
| 20260905035203 | 74 | 252 | 3.0 | 5.0 | 0.00 | 0.07 | 0.07 | 89 | 1013.8 |
| 20260905034704 | 74 | 269 | 3.0 | 5.0 | 0.00 | 0.07 | 0.07 | 88 | 1013.6 |
| 20260905034702 | 0 | 0.0 | 0.0 | 0.00 | 0.00 | 0.00 | 1014.2 | ||
| 20260905034601 | 67 | 355 | 5.0 | 10.0 | 0.00 | 0.00 | 0.00 | 90 | 1024.0 |
| 20260905034203 | 74 | 245 | 3.0 | 6.0 | 0.00 | 0.07 | 0.07 | 89 | 1013.5 |
| 20260905034201 | 0 | 0.0 | 0.0 | 0.00 | 0.00 | 0.00 | 1014.3 | ||
| 20260905033703 | 74 | 282 | 3.0 | 5.0 | 0.00 | 0.07 | 0.07 | 89 | 1013.8 |
| 20260905033700 | 0 | 0.0 | 0.0 | 0.00 | 0.00 | 0.00 | 1014.5 | ||
| 20260905033203 | 74 | 294 | 3.0 | 7.0 | 0.00 | 0.07 | 0.07 | 89 | 1013.9 |
| 20260905033155 | 0 | 0.0 | 0.0 | 0.00 | 0.00 | 0.00 | 1014.5 | ||
| 20260905033051 | 68 | 348 | 5.0 | 10.0 | 0.00 | 0.00 | 0.00 | 90 | 1024.2 |
| 20260905032703 | 74 | 282 | 3.0 | 7.0 | 0.00 | 0.07 | 0.07 | 89 | 1013.9 |
| 20260905032655 | 0 | 0.0 | 0.0 | 0.00 | 0.00 | 0.00 | 1014.5 | ||
| 20260905032150 | 0 | 0.0 | 0.0 | 0.00 | 0.00 | 0.00 | 1014.5 | ||
| 20260905031646 | 0 | 0.0 | 0.0 | 0.00 | 0.00 | 0.00 | 1014.4 | ||
| 20260905031551 | 68 | 346 | 3.0 | 6.0 | 0.00 | 0.00 | 0.00 | 91 | 1024.1 |
| 20260905031141 | 0 | 0.0 | 0.0 | 0.00 | 0.00 | 0.00 | 1014.4 | ||
| 20260905030704 | 74 | 265 | 4.0 | 9.0 | 0.00 | 0.07 | 0.07 | 90 | 1014.3 |
| 20260905030636 | 0 | 0.0 | 0.0 | 0.00 | 0.00 | 0.00 | 1014.2 | ||
| 20260905030203 | 74 | 246 | 5.0 | 7.0 | 0.00 | 0.07 | 0.07 | 90 | 1014.4 |
| 20260905030131 | 0 | 0.0 | 0.0 | 0.00 | 0.00 | 0.00 | 1014.4 | ||
| 20260905030049 | 68 | 359 | 1.0 | 4.0 | 0.00 | 0.00 | 0.00 | 90 | 1024.1 |
| 20260905025704 | 74 | 257 | 3.0 | 7.0 | 0.00 | 0.07 | 0.07 | 90 | 1014.5 |
| 20260905025626 | 0 | 0.0 | 0.0 | 0.00 | 0.00 | 0.00 | 1014.3 | ||
| 20260905025122 | 0 | 0.0 | 0.0 | 0.00 | 0.00 | 0.00 | 1014.6 | ||
| 20260905024703 | 74 | 251 | 4.0 | 6.0 | 0.00 | 0.07 | 0.07 | 89 | 1014.6 |
| 20260905024618 | 0 | 0.0 | 0.0 | 0.00 | 0.00 | 0.00 | 1014.4 | ||
| 20260905024557 | 68 | 303 | 4.0 | 8.0 | 0.00 | 0.00 | 0.00 | 90 | 1024.1 |
| 20260905024204 | 75 | 279 | 3.0 | 5.0 | 0.01 | 0.07 | 0.07 | 89 | 1014.7 |
| 20260905024113 | 0 | 0.0 | 0.0 | 0.00 | 0.00 | 0.00 | 1014.5 | ||
| 20260905023608 | 0 | 0.0 | 0.0 | 0.00 | 0.00 | 0.00 | 1014.7 | ||
| 20260905023203 | 75 | 308 | 2.0 | 5.0 | 0.02 | 0.07 | 0.07 | 89 | 1015.1 |
| 20260905023102 | 0 | 0.0 | 0.0 | 0.00 | 0.00 | 0.00 | 1014.6 | ||
| 20260905023047 | 68 | 305 | 4.0 | 9.0 | 0.00 | 0.00 | 0.00 | 90 | 1024.0 |
| 20260905022704 | 75 | 301 | 2.0 | 6.0 | 0.02 | 0.07 | 0.07 | 89 | 1015.1 |
| 20260905022601 | 0 | 0.0 | 0.0 | 0.00 | 0.00 | 0.00 | 1014.7 | ||
| 20260905022203 | 75 | 271 | 3.0 | 6.0 | 0.03 | 0.07 | 0.07 | 88 | 1015.1 |
| 20260905022057 | 0 | 0.0 | 0.0 | 0.00 | 0.00 | 0.00 | 1014.6 | ||
| 20260905021704 | 75 | 326 | 3.0 | 5.0 | 0.04 | 0.07 | 0.07 | 87 | 1014.6 |
| 20260905021556 | 0 | 0.0 | 0.0 | 0.00 | 0.00 | 0.00 | 1014.5 | ||
| 20260905021546 | 68 | 315 | 4.0 | 10.0 | 0.00 | 0.00 | 0.00 | 90 | 1023.8 |
| 20260905021204 | 76 | 256 | 2.0 | 5.0 | 0.04 | 0.07 | 0.07 | 86 | 1014.3 |
| 20260905021052 | 0 | 0.0 | 0.0 | 0.00 | 0.00 | 0.00 | 1014.3 | ||
| 20260905020703 | 76 | 321 | 2.0 | 6.0 | 0.05 | 0.07 | 0.07 | 86 | 1013.9 |
| 20260905020551 | 0 | 0.0 | 0.0 | 0.00 | 0.00 | 0.00 | 1014.3 | ||
| 20260905020204 | 76 | 351 | 4.0 | 6.0 | 0.06 | 0.07 | 0.07 | 85 | 1013.2 |
| 20260905020052 | 68 | 346 | 7.0 | 11.0 | 0.00 | 0.00 | 0.00 | 91 | 1023.8 |
| 20260905020047 | 0 | 0.0 | 0.0 | 0.00 | 0.00 | 0.00 | 1014.4 | ||
| 20260905015703 | 77 | 252 | 3.0 | 8.0 | 0.07 | 0.07 | 0.07 | 83 | 1013.1 |
| 20260905015544 | 0 | 0.0 | 0.0 | 0.00 | 0.00 | 0.00 | 1014.2 | ||
| 20260905015204 | 76 | 222 | 3.0 | 8.0 | 0.07 | 0.07 | 0.07 | 84 | 1012.9 |
| 20260905015039 | 0 | 0.0 | 0.0 | 0.00 | 0.00 | 0.00 | 1014.4 | ||
| 20260905014543 | 68 | 308 | 4.0 | 10.0 | 0.00 | 0.00 | 0.00 | 91 | 1023.7 |
| 20260905014533 | 0 | 0.0 | 0.0 | 0.00 | 0.00 | 0.00 | 1014.2 | ||
| 20260905014203 | 75 | 111 | 3.0 | 17.0 | 0.06 | 0.06 | 0.06 | 86 | 1013.5 |
| 20260905014024 | 0 | 0.0 | 0.0 | 0.00 | 0.00 | 0.00 | 1014.0 | ||
| 20260905013704 | 75 | 325 | 5.0 | 14.0 | 0.06 | 0.06 | 0.06 | 88 | 1014.0 |
| 20260905013520 | 0 | 0.0 | 0.0 | 0.00 | 0.00 | 0.00 | 1014.1 | ||
| 20260905013204 | 75 | 318 | 3.0 | 12.0 | 0.06 | 0.06 | 0.06 | 88 | 1014.0 |
| 20260905013043 | 68 | 313 | 3.0 | 9.0 | 0.00 | 0.00 | 0.00 | 91 | 1023.5 |
| 20260905013016 | 0 | 0.0 | 0.0 | 0.00 | 0.00 | 0.00 | 1014.1 | ||
| 20260905012703 | 75 | 301 | 6.0 | 13.0 | 0.05 | 0.05 | 0.05 | 89 | 1014.1 |
| 20260905012510 | 0 | 0.0 | 0.0 | 0.00 | 0.00 | 0.00 | 1014.1 | ||
| 20260905012203 | 75 | 303 | 5.0 | 12.0 | 0.04 | 0.04 | 0.04 | 88 | 1014.1 |
| 20260905012007 | 0 | 0.0 | 0.0 | 0.00 | 0.00 | 0.00 | 1013.9 | ||
| 20260905011704 | 75 | 181 | 5.0 | 12.0 | 0.04 | 0.04 | 0.04 | 87 | 1014.2 |
| 20260905011542 | 68 | 324 | 6.0 | 11.0 | 0.00 | 0.00 | 0.00 | 91 | 1023.4 |
| 20260905011503 | 0 | 0.0 | 0.0 | 0.00 | 0.00 | 0.00 | 1014.1 | ||
| 20260905011203 | 76 | 299 | 3.0 | 7.0 | 0.03 | 0.03 | 0.03 | 85 | 1014.8 |
| 20260905010958 | 0 | 248 | 0.0 | 0.0 | 0.00 | 0.77 | 0.77 | 1014.0 | |
| 20260905010703 | 76 | 295 | 5.0 | 13.0 | 0.02 | 0.02 | 0.02 | 85 | 1014.9 |
| 20260905010458 | 0 | 248 | 0.0 | 0.0 | 0.00 | 0.77 | 0.77 | 1014.0 | |
| 20260905010042 | 68 | 319 | 6.0 | 11.0 | 0.00 | 0.00 | 0.00 | 91 | 1023.5 |
| 20260905005954 | 0 | 246 | 0.0 | 0.0 | 0.00 | 0.77 | 0.77 | 1013.8 | |
| 20260905005704 | 79 | 294 | 6.0 | 12.0 | 0.00 | 0.00 | 0.00 | 80 | 1015.5 |
| 20260905005449 | 0 | 246 | 0.0 | 0.0 | 0.00 | 0.77 | 0.77 | 1013.9 | |
| 20260905005203 | 79 | 293 | 7.0 | 14.0 | 0.00 | 0.00 | 0.00 | 78 | 1015.9 |
| 20260905004944 | 0 | 320 | 0.0 | 0.0 | 0.00 | 0.77 | 0.77 | 1013.9 | |
| 20260905004703 | 79 | 285 | 7.0 | 13.0 | 0.00 | 0.00 | 0.00 | 79 | 1016.1 |
| 20260905004539 | 68 | 329 | 9.0 | 12.0 | 0.00 | 0.00 | 0.00 | 91 | 1023.6 |
| 20260905004439 | 0 | 350 | 0.0 | 0.0 | 0.00 | 0.77 | 0.77 | 1013.9 | |
| 20260905004203 | 79 | 289 | 7.0 | 16.0 | 0.00 | 0.00 | 0.00 | 79 | 1015.9 |
| 20260905003934 | 0 | 346 | 0.0 | 0.0 | 0.00 | 0.77 | 0.77 | 1013.8 | |
| 20260905003704 | 80 | 277 | 8.0 | 21.0 | 0.00 | 0.00 | 0.00 | 79 | 1016.5 |
| 20260905003430 | 0 | 351 | 0.0 | 0.0 | 0.00 | 0.77 | 0.77 | 1013.7 | |
| 20260905003203 | 80 | 277 | 7.0 | 17.0 | 0.00 | 0.00 | 0.00 | 79 | 1016.5 |
| 20260905003039 | 68 | 302 | 6.0 | 12.0 | 0.00 | 0.00 | 0.00 | 91 | 1023.6 |
| 20260905002925 | 0 | 358 | 0.0 | 0.0 | 0.00 | 0.77 | 0.77 | 1013.7 | |
| 20260905002704 | 80 | 254 | 8.0 | 16.0 | 0.00 | 0.00 | 0.00 | 79 | 1016.9 |
| 20260905002420 | 0 | 357 | 0.0 | 0.0 | 0.00 | 0.77 | 0.77 | 1013.8 | |
| 20260905002203 | 80 | 270 | 6.0 | 10.0 | 0.00 | 0.00 | 0.00 | 81 | 1017.1 |
| 20260905001920 | 0 | 353 | 0.0 | 1.0 | 0.00 | 0.77 | 0.77 | 1013.9 | |
| 20260905001704 | 80 | 279 | 4.0 | 8.0 | 0.00 | 0.00 | 0.00 | 82 | 1016.8 |
| 20260905001536 | 68 | 334 | 7.0 | 11.0 | 0.00 | 0.00 | 0.00 | 91 | 1023.6 |
| 20260905001415 | 0 | 8 | 0.0 | 0.0 | 0.00 | 0.77 | 0.77 | 1014.0 | |
| 20260905001204 | 80 | 261 | 4.0 | 8.0 | 0.00 | 0.00 | 0.00 | 83 | 1016.3 |
| 20260905000909 | 0 | 20 | 0.0 | 0.0 | 0.00 | 0.77 | 0.77 | 1013.8 | |
| 20260905000703 | 80 | 267 | 3.0 | 6.0 | 0.00 | 0.00 | 0.00 | 83 | 1015.8 |
| 20260905000405 | 0 | 7 | 0.0 | 0.0 | 0.00 | 0.77 | 0.77 | 1014.1 | |
| 20260905000036 | 68 | 329 | 6.0 | 10.0 | 0.00 | 0.00 | 0.00 | 91 | 1023.5 |
| 20260904235900 | 0 | 359 | 0.0 | 0.0 | 0.00 | 0.77 | 0.77 | 1014.0 | |
| 20260904235704 | 80 | 303 | 3.0 | 9.0 | 0.00 | 0.00 | 0.00 | 83 | 1016.0 |
| 20260904235355 | 0 | 353 | 0.0 | 0.0 | 0.00 | 0.77 | 0.77 | 1014.2 | |
| 20260904235204 | 80 | 301 | 3.0 | 6.0 | 0.00 | 0.00 | 0.00 | 83 | 1015.3 |
| 20260904234850 | 0 | 338 | 0.0 | 1.0 | 0.00 | 0.77 | 0.77 | 1013.9 | |
| 20260904234704 | 80 | 296 | 2.0 | 3.0 | 0.00 | 0.00 | 0.00 | 83 | 1014.8 |
| 20260904234532 | 67 | 318 | 5.0 | 9.0 | 0.00 | 0.00 | 0.00 | 91 | 1023.5 |
| 20260904234345 | 0 | 352 | 1.0 | 1.0 | 0.00 | 0.77 | 0.77 | 1013.9 | |
| 20260904234204 | 80 | 244 | 2.0 | 3.0 | 0.00 | 0.00 | 0.00 | 82 | 1014.8 |
| 20260904233840 | 0 | 22 | 0.0 | 0.0 | 0.00 | 0.77 | 0.77 | 1013.8 | |
| 20260904233336 | 0 | 264 | 1.0 | 1.0 | 0.00 | 0.77 | 0.77 | 1013.8 | |
| 20260904233204 | 80 | 299 | 3.0 | 6.0 | 0.00 | 0.00 | 0.00 | 81 | 1015.1 |
| 20260904233033 | 67 | 334 | 4.0 | 8.0 | 0.00 | 0.00 | 0.00 | 91 | 1023.2 |
| 20260904232833 | 0 | 29 | 0.0 | 0.0 | 0.00 | 0.77 | 0.77 | 1013.9 | |
| 20260904232329 | 0 | 41 | 1.0 | 1.0 | 0.00 | 0.77 | 0.77 | 1013.9 | |
| 20260904232204 | 80 | 278 | 2.0 | 3.0 | 0.00 | 0.00 | 0.00 | 81 | 1015.3 |